Location: Rockford
(42.2710°N, 89.0940°W)
Time: 03:14:20
(UTC-05:00)

SPOT 5 - Visible Passes

Search period start: 26 April 2015 00:00
Search period end: 06 May 2015 00:00
Orbit: 821 x 823 km, 98.5° (Epoch: 25 April)

Date Brightness Start Highest point End Pass type
(mag) Time Alt. Az. Time Alt. Az. Time Alt. Az.
26 Apr 4.1 20:46:08 13° ESE 20:50:04 31° ENE 20:54:47 10° N visible
26 Apr 4.4 22:27:32 23° SW 22:30:11 35° W 22:35:04 10° NNW visible
27 Apr 4.5 20:26:14 10° ESE 20:30:07 22° ENE 20:34:10 10° NNE visible
27 Apr 3.7 22:07:05 26° SSW 22:09:57 54° W 22:15:13 10° NNW visible
28 Apr 3.2 21:46:38 26° S 21:49:47 81° WSW 21:55:11 10° NNW visible
29 Apr 3.1 21:26:12 22° SSE 21:29:41 68° ENE 21:35:02 10° N visible
29 Apr 5.4 23:07:35 11° WSW 23:10:27 16° W 23:13:29 10° NW visible
30 Apr 3.6 21:05:44 16° SE 21:09:38 45° ENE 21:14:46 10° N visible
30 Apr 5.0 22:47:08 16° SW 22:50:03 24° W 22:54:16 10° NW visible
01 May 4.1 20:45:18 11° SE 20:49:38 31° ENE 20:54:21 10° N visible
01 May 4.4 22:26:41 20° SSW 22:29:45 35° W 22:34:38 10° NNW visible
02 May 4.6 20:25:48 10° ESE 20:29:42 22° ENE 20:33:45 10° NNE visible
02 May 3.7 22:06:15 23° S 22:09:31 54° W 22:14:47 10° NNW visible
03 May 3.2 21:45:48 22° S 21:49:21 81° WSW 21:54:45 10° NNW visible
04 May 3.2 21:25:22 19° SSE 21:29:15 68° ENE 21:34:36 10° N visible
04 May 5.5 23:06:46 10° SW 23:10:01 16° W 23:13:03 10° NW visible
05 May 3.6 21:04:55 14° SE 21:09:12 45° ENE 21:14:20 10° N visible
05 May 5.0 22:46:19 14° SW 22:49:37 24° W 22:53:50 10° NW visible
